Вернуться в каталог

STARLINK-35139

АктивенСвязьVLEO
NORAD 66380·PAYLOAD·🇺🇸 United States

Запущен Nov 8, 2025 с Cape Canaveral Space Force Station

Loading…

Ближайшие Пролёты (ближайшие 24 часа)

TLE

СвежийSource: CelesTrak SupGP

Эпоха: Sep 15, 2026, 03:01 UTC

1 66380C 25257A   26258.12618056 -.00019152  00000+0 -56583-3 0  2583
2 66380  53.1598  52.7379 0001141  79.5304 105.5975 15.34401484    11

Отслеживайте STARLINK-35139 в реальном времени с AllMySat

Download on the App Store